Dewpoint
15 14 15 16 21 21 19 18 19 21 22 23 22 22 22 24 24 25 26 26 25 26 26 27 27 29 34 40 50 56 60 62 62 61 60 60 60 61 61 61 62 61 62 61
13 8 12 14 17 18 23 23 18 19 24 24 22 21 22 23 24 25 24 25 25 26 27 27 28 30 36 41 49 55 58 61 61 61 60 59 59 60 60 61 61 62 61 59
9 10 11 17 16 20 22 18 16 17 19 20 20 19 20 21 21 22 23 24 25 26 27 27 28 30 36 45 49 54 57 60 60 60 59 59 58 58 58 60 60 60 59 59
12 9 15 18 17 20 15 16 16 17 17 15 22 13 15 17 16 18 23 34 38 39 39 36 32 30 33 45 50 53 58 58 60 60 59 57 56 55 56 57 58 60 60 58
20 18 16 16 13 14 12 12 15 13 11 14 18 19 12 13 14 22 29 38 40 41 41 42 39 34 33 44 52 55 58 58 59 59 58 57 55 53 56 57 58 59 59 59
23 27 21 17 18 17 15 14 18 21 21 20 17 15 9 13 22 32 37 39 40 41 42 43 44 40 36 43 53 57 58 57 58 59 58 57 55 53 55 56 57 58 58 58
22 20 29 25 26 21 22 22 20 19 20 14 17 16 11 26 36 37 37 38 39 41 43 44 45 45 38 47 54 57 57 57 57 57 57 57 55 54 54 55 57 57 57 57
14 13 28 31 23 22 22 20 16 8 8 10 21 17 18 33 33 36 36 37 39 40 42 44 47 48 45 47 54 57 57 57 57 57 56 56 55 54 54 55 57 57 57 57
12 11 19 30 31 26 26 23 24 20 24 18 14 17 24 33 31 33 35 37 40 41 41 44 47 50 48 46 53 56 56 56 56 56 56 56 55 56 54 55 55 56 57 58
13 18 20 30 31 31 26 26 22 22 18 15 15 17 21 27 33 34 35 38 41 40 41 43 44 50 45 47 53 56 56 55 56 56 56 56 55 56 55 56 55 55 57 58
17 18 24 27 23 24 27 25 25 23 24 16 14 19 34 34 34 34 36 41 40 39 40 40 42 49 48 50 55 56 56 55 55 56 55 55 55 55 56 55 55 55 56 57
30 23 20 20 30 25 21 20 22 18 23 24 24 21 37 30 31 36 39 39 38 38 39 39 40 45 51 53 54 55 55 55 55 55 54 55 55 55 55 55 56 55 55 55
28 25 24 26 27 27 25 28 28 30 28 25 23 22 31 24 30 38 40 39 37 37 36 36 38 40 43 46 53 55 55 55 57 55 56 55 53 54 55 55 56 56 56 56
29 24 22 18 21 24 26 27 28 26 23 21 22 19 19 28 35 37 40 39 37 36 36 34 35 38 39 41 43 44 51 55 55 54 54 54 53 54 55 56 55 56 56 55
30 21 22 22 22 21 19 17 19 19 20 19 18 19 24 36 38 40 40 37 36 36 35 34 33 34 37 38 39 40 41 43 51 52 52 54 54 54 55 55 54 55 56 56
32 23 18 19 19 16 13 12 13 15 18 19 21 22 33 38 38 37 37 36 35 33 34 34 33 33 36 36 37 37 37 38 39 39 40 42 45 46 47 48 49 53 53 55
23 19 13 16 16 11 9 15 13 16 20 21 20 25 31 37 36 36 35 35 33 33 32 31 32 32 35 36 34 35 35 36 36 36 36 36 38 40 41 42 43 44 46 47
21 16 16 14 13 2 17 18 21 20 26 28 29 33 37 37 35 34 35 34 32 32 31 30 31 31 32 35 35 33 33 33 35 34 34 35 35 36 38 38 40 42 42 39
27 20 16 12 8 12 22 26 25 22 22 30 34 35 37 35 34 31 31 32 31 30 31 30 31 31 32 33 33 32 31 30 30 30 31 32 34 34 36 36 37 38 37 34
26 26 18 17 8 9 25 28 30 29 18 32 33 34 38 36 36 28 29 29 29 30 27 27 28 27 30 32 32 31 30 30 29 29 29 31 31 32 32 34 35 35 33 32
23 24 20 19 15 18 31 30 28 18 27 33 33 31 30 27 27 29 28 27 30 26 26 26 26 26 26 28 30 29 29 29 28 27 28 28 28 30 31 31 32 32 32 32
21 21 21 21 18 17 32 29 27 31 34 34 33 32 29 28 28 27 26 26 28 24 23 24 24 24 25 26 27 28 27 28 27 26 26 26 27 28 29 29 29 30 30 30
25 28 26 27 25 30 31 29 31 32 30 31 31 31 31 28 27 27 25 25 25 24 22 22 22 22 23 23 25 25 27 27 26 24 24 24 24 25 25 26 27 27 27 27
30 30 30 29 29 28 30 31 31 30 29 29 31 31 30 27 26 25 25 24 22 20 20 21 21 21 21 22 23 24 25 25 25 24 23 22 22 22 23 23 24 25 25 25
28 28 27 28 30 29 28 29 29 29 29 28 27 27 27 25 23 22 20 20 19 19 19 20 20 20 19 20 21 22 24 24 23 23 22 22 22 21 21 22 23 22 24 25
28 27 27 25 28 28 27 28 28 26 25 25 24 23 23 22 21 20 19 18 18 18 18 18 19 19 19 20 20 21 22 23 23 22 22 23 22 21 21 19 19 20 21 22
Wind_Speed
28 25 35 35 29 24 21 16 19 14 10 12 20 21 18 16 17 18 19 20 22 24 24 25 23 18 17 17 19 25 27 25 22 19 17 12 14 12 13 13 14 16 13 15
20 35 26 24 25 20 12 19 24 17 10 15 19 24 22 19 18 22 23 24 24 24 23 23 23 21 16 18 21 25 29 25 25 22 20 13 15 13 13 12 12 11 13 10
29 14 24 20 19 22 26 27 22 18 14 15 19 26 28 23 22 23 16 11 12 15 19 23 24 22 19 19 22 26 28 26 25 23 19 13 12 8 13 12 9 12 14 11
23 20 17 22 25 25 26 22 16 14 12 18 2 8 3 9 11 8 2 5 9 12 15 18 22 22 22 21 18 23 25 25 24 25 22 21 18 14 14 12 15 13 15 13
14 18 14 20 25 23 23 13 14 17 16 16 17 9 4 4 5 7 3 8 11 14 15 16 17 20 21 18 18 21 22 24 25 26 23 20 17 12 13 13 13 13 14 14
9 11 16 22 11 18 10 12 10 8 9 13 18 14 6 6 1 5 5 8 12 16 17 18 17 15 18 17 20 22 24 25 25 26 24 21 18 14 15 15 14 12 13 13
11 13 10 18 13 10 18 21 10 11 10 12 8 8 7 1 2 4 8 10 13 18 20 20 20 17 14 18 23 23 26 27 26 26 24 22 18 16 17 17 14 13 13 14
18 13 13 13 14 13 23 23 8 9 8 9 9 7 7 4 2 6 9 11 16 21 20 21 23 21 16 19 23 24 26 26 27 27 25 21 18 15 15 17 16 14 14 14
19 9 15 14 11 19 17 17 2 0 2 3 7 5 10 5 6 11 15 17 19 23 24 21 27 23 16 18 23 25 24 24 23 24 24 22 19 17 15 17 16 15 14 13
8 8 15 6 11 2 15 15 8 5 6 7 6 2 5 6 11 17 22 22 23 24 24 25 29 28 10 15 18 18 20 21 20 22 21 21 20 16 15 15 16 15 14 16
13 9 12 13 13 17 12 12 3 4 3 2 1 6 7 8 13 18 20 17 22 24 23 25 30 31 2 9 15 16 19 20 21 20 20 21 20 16 14 16 16 15 15 15
2 9 21 11 2 7 7 8 8 6 4 2 1 2 6 10 14 19 17 14 17 19 23 27 29 26 15 7 13 15 17 18 19 18 18 19 18 18 16 14 13 14 15 15
1 12 15 12 10 8 7 8 7 8 3 5 2 5 1 15 17 16 9 14 17 22 25 29 28 26 20 20 7 12 12 14 16 18 17 17 16 16 18 15 15 15 16 17
3 4 2 8 13 13 11 9 6 2 2 3 7 13 16 17 17 21 10 13 19 26 26 27 27 25 21 18 18 21 13 11 12 14 12 12 13 13 14 14 15 14 14 13
7 16 16 16 14 12 10 7 4 4 3 4 7 15 15 17 21 11 13 15 21 23 25 26 24 24 23 21 20 19 24 23 14 15 12 3 10 10 11 13 14 15 14 13
10 5 6 12 9 6 5 2 3 3 3 5 7 7 12 10 16 20 17 17 20 18 19 18 19 24 23 22 20 20 26 22 19 22 20 18 16 15 14 14 15 12 8 4
4 1 2 4 3 2 6 7 4 4 6 6 8 13 10 8 15 14 12 14 15 15 14 17 15 18 17 20 21 24 24 21 20 19 19 20 19 18 17 14 14 14 13 13
3 4 3 2 1 3 6 5 9 6 9 13 13 14 10 13 15 16 14 14 15 15 16 18 17 13 21 24 23 20 17 21 19 19 20 18 21 20 18 17 17 14 15 15
6 2 4 1 3 8 7 10 9 7 7 16 16 17 15 15 16 16 16 15 14 14 13 12 13 15 15 21 12 17 22 20 19 22 21 21 20 21 15 17 17 15 15 15
5 5 1 1 2 3 7 12 11 8 3 16 17 20 10 11 3 5 12 13 14 14 13 15 15 16 19 21 20 21 23 23 23 19 21 20 20 21 20 17 18 13 15 16
3 4 5 3 3 6 12 19 18 4 7 12 13 14 14 6 7 10 10 12 11 13 14 14 16 18 19 18 16 20 19 20 18 17 21 23 22 21 16 12 13 12 14 15
4 3 3 1 1 2 22 9 6 8 12 11 12 11 14 13 12 12 11 12 12 13 14 14 14 16 16 16 15 16 17 13 13 18 17 18 18 17 13 14 11 14 14 15
2 5 5 6 4 7 11 11 9 11 11 12 10 10 10 10 11 10 11 11 12 13 14 13 13 13 15 16 15 15 13 12 13 16 18 18 17 17 17 15 15 15 15 15
3 5 2 3 6 8 11 10 12 12 12 12 11 10 9 11 9 9 9 11 12 14 15 13 14 14 15 14 14 13 11 10 11 14 14 17 18 19 19 19 17 16 16 15
4 7 4 6 8 5 13 13 11 11 10 10 11 11 9 8 9 8 9 11 12 12 12 12 13 13 15 15 15 14 12 9 11 11 12 13 15 18 21 23 20 19 22 18
5 4 4 4 4 6 6 8 9 11 10 9 8 9 10 9 9 8 9 9 10 11 11 12 13 14 14 15 15 15 14 11 9 10 11 10 10 9 11 13 17 24 24 26
Wind_Direction
190 192 211 213 216 233 251 241 244 236 240 253 251 254 250 245 247 255 257 259 260 260 259 259 260 250 238 227 213 207 199 192 179 173 169 176 195 195 208 217 214 220 196 196
186 214 218 227 218 227 232 244 253 252 223 253 263 264 264 261 259 255 258 259 258 263 265 263 262 257 235 223 213 206 200 190 187 183 190 190 194 208 221 214 222 206 185 187
205 216 219 209 201 205 223 228 235 246 256 251 269 273 258 251 245 249 252 274 290 287 285 276 267 259 248 230 213 208 199 190 189 186 179 178 188 201 207 199 199 175 160 156
233 196 201 197 206 203 223 225 238 237 246 253 148 273 268 250 248 217 134 323 316 309 305 293 270 260 246 237 218 208 190 189 187 181 180 186 191 194 215 194 213 163 171 158
205 194 180 195 216 210 229 216 226 232 240 261 244 250 231 184 184 128 311 320 319 320 316 308 290 268 252 229 213 202 182 188 182 183 183 187 199 198 192 182 185 178 169 164
167 168 203 223 210 215 213 192 191 198 222 244 240 224 197 158 7 314 329 325 322 323 318 314 309 283 256 220 201 187 179 186 181 182 183 188 192 189 191 179 184 170 163 163
166 159 158 172 160 185 182 172 168 194 209 234 144 198 249 151 123 336 324 331 329 335 328 323 317 303 253 216 198 180 177 185 183 182 182 183 187 188 200 179 178 168 166 166
180 190 170 168 188 182 193 191 199 198 197 178 169 224 147 147 303 328 322 339 351 344 336 327 324 305 275 221 199 183 184 185 185 181 178 176 183 183 203 180 175 179 178 172
195 163 191 180 169 171 175 207 279 218 62 236 190 166 154 188 327 345 339 344 348 340 341 340 333 306 269 214 201 191 188 183 184 184 174 169 177 195 198 184 184 180 170 170
203 140 184 155 156 112 202 165 188 205 207 222 161 193 84 7 358 346 342 344 348 344 347 351 343 319 252 208 190 183 181 180 171 176 177 168 173 200 193 178 178 177 166 169
172 163 166 167 207 170 157 174 180 185 288 250 121 110 47 39 356 346 340 353 348 353 355 1 345 331 301 191 156 168 173 167 164 167 176 170 174 192 181 186 174 174 171 173
187 138 157 172 211 209 206 184 191 213 176 80 350 80 93 12 352 4 357 10 5 7 10 12 355 349 357 126 137 166 175 164 161 158 173 173 168 182 178 188 177 174 178 184
118 152 138 135 137 153 163 152 126 103 107 179 243 103 218 345 347 1 65 38 25 29 20 15 4 355 12 30 91 157 147 152 167 153 169 178 172 176 176 186 187 177 184 185
305 95 230 143 145 147 144 143 149 133 198 141 248 312 334 351 354 345 89 59 44 43 31 21 2 359 4 26 44 47 57 126 135 141 158 164 167 172 169 197 174 178 187 196
47 81 86 92 98 112 123 129 153 207 234 255 333 323 342 18 355 4 82 66 53 44 41 27 0 356 11 21 34 48 50 39 60 83 78 123 171 167 180 192 179 178 183 191
339 84 99 82 93 94 102 64 263 249 253 275 294 330 43 56 61 53 46 50 52 38 26 45 14 2 11 22 36 41 52 40 48 62 55 42 45 65 62 58 57 65 77 65
17 40 39 103 68 355 110 56 76 111 66 346 347 341 343 65 69 64 63 58 54 46 33 26 19 13 2 27 34 42 50 43 43 54 57 53 46 44 51 54 59 57 56 67
48 92 17 101 240 114 80 10 41 89 53 20 1 357 48 102 93 65 48 63 47 39 24 13 13 2 17 21 30 45 56 51 45 49 51 51 60 41 47 50 49 50 59 59
26 17 87 110 77 114 90 38 12 4 39 18 352 338 136 134 111 58 45 47 55 43 31 27 15 14 29 31 17 48 55 54 47 46 46 47 45 55 33 52 51 51 61 66
38 15 0 167 101 112 70 354 335 304 182 15 357 346 167 175 270 75 50 38 49 46 36 26 29 27 28 22 22 36 40 41 37 34 45 44 46 52 41 30 52 60 73 71
32 37 51 56 68 101 2 343 322 275 17 18 17 16 25 77 74 89 68 55 37 47 41 32 30 34 30 26 27 42 40 42 37 38 43 42 37 47 50 41 48 64 71 77
15 330 53 16 8 147 360 347 12 331 33 38 44 62 82 94 90 80 71 60 46 45 46 43 42 37 34 32 36 44 45 42 50 57 57 58 53 56 55 61 58 62 70 70
38 21 348 18 62 47 41 59 38 39 56 39 57 59 80 83 76 69 64 49 50 47 49 47 51 49 37 32 35 43 36 33 48 57 60 64 59 61 55 55 57 62 60 64
95 10 17 195 68 62 50 58 55 53 56 43 42 58 75 86 77 67 53 53 47 44 43 41 47 46 46 40 38 32 36 43 57 62 64 67 61 58 59 59 47 53 57 59
351 319 349 103 108 118 62 45 48 56 61 61 56 55 59 69 63 63 61 53 53 49 44 45 47 44 40 36 37 31 27 53 65 69 68 68 70 71 69 60 56 55 52 52
6 13 347 70 18 71 72 54 55 59 51 43 55 59 53 64 67 61 64 58 56 57 49 47 44 47 42 39 38 32 31 39 67 72 69 69 77 84 94 90 77 57 56 58